Regional Weather Roundup
Issued by NWS Charleston, WV

Home | Current Version | Previous Version | Graphics & Text | Print | Product List | Glossary On
Versions: 1 2 3 4 5 6 7 8 9 10 11 12 13 14 15 16 17 18 19 20 21 22 23 24 25 26 27 28 29 30 31 32 33 34 35 36 37 38 39 40 41 42 43 44 45 46 47 48 49
000
ASUS41 KRLX 020610
RWRRLX
West Virginia Regional Weather Roundup
National Weather Service Charleston WV
200 AM EDT THU OCT 02 2014

Note: "fair" indicates few or no clouds below 12,000 feet with no
significant weather and/or obstructions to visibility.

WVZ003-020700-
Northern Panhandle of West Virginia

CITY           SKY/WX    TMP DP  RH WIND       PRES   REMARKS
WHEELING       CLEAR     56  54  93 E3        30.05S FOG
$$

WVZ009-020700-
Northwest West Virginia

CITY           SKY/WX    TMP DP  RH WIND       PRES   REMARKS
PARKERSBURG    PTCLDY    51  49  92 CALM      30.08S FOG
$$

WVZ006-020700-
Western West Virginia

CITY           SKY/WX    TMP DP  RH WIND       PRES   REMARKS
HUNTINGTON     FOG       58  58 100 E3        30.03S VSB 1/4
$$

WVZ015-020700-
West Central West Virginia

CITY           SKY/WX    TMP DP  RH WIND       PRES   REMARKS
CHARLESTON     FOG       56  55  97 CALM      30.05S VSB 1/4
$$

WVZ031-020700-
North Central West Virginia

CITY           SKY/WX    TMP DP  RH WIND       PRES   REMARKS
CLARKSBURG     FOG       51  51 100 CALM      30.07S VSB 1/4
MORGANTOWN     PTCLDY    54  50  86 CALM      30.08R FOG
$$

WVZ035-042-045-020700-
South Central West Virginia

CITY           SKY/WX    TMP DP  RH WIND       PRES   REMARKS
BECKLEY        CLEAR     53  51  93 CALM      30.11S
BLUEFIELD      CLEAR     61  52  72 CALM      30.13S
LEWISBURG      CLEAR     52  49  91 CALM      30.12R
$$

WVZ047-020700-
Northern Mountains of West Virginia

CITY           SKY/WX    TMP DP  RH WIND       PRES   REMARKS
ELKINS         FOG       52  52 100 CALM      30.11R VSB 1/4
$$

WVZ052-020700-
Eastern Panhandle of West Virginia

CITY           SKY/WX    TMP DP  RH WIND       PRES   REMARKS
MARTINSBURG    MOCLDY    59  55  87 NE3       30.09R FOG
PETERSBURG     CLOUDY   N/A N/A N/A CALM      30.09S FOG
$$



USA.gov is the U.S. government's official web portal to all federal, state and local government web resources and services.